Location: ?????????
(53.2086°N, 54.0693°E)
Time: 21:28:50
(UTC+00:00)

Cosmos 2360 Rocket - Pass Details

Date: 08 December 2019
Orbit: 833 x 846 km, 71.0° (Epoch: 20 January)

Event Time Altitude Azimuth Distance (km) Brightness Sun altitude
Rises 14:17:38 0° 243° (WSW) 3,395 6.9 -18.3°
Reaches altitude 10° 14:20:18 10° 252° (WSW) 2,465 5.9 -18.7°
Maximum altitude 14:25:26 35° 317° (NW) 1,350 3.5 -19.5°
Enters shadow 14:29:50 14° 19° (NNE) 2,221 4.1 -20.1°
